STARLINK-31951 (59890 NORAD) Tracking and Keplerian Element Data

This shows tracking and keplerian element data for the satellite.

Feedback or suggestion? Click here.




ElementValue
Catalog59890
NameSTARLINK-31951
Epoch Orbit3999
Epoch Day34.91906249
Epoch Year2025
RAAN224.0573
Inclination43.0005
Eccentricity0.0001451
Argument of Perigee258.7334
Mean Anonmoly101.3359
Mean Motion15.40725026
Decay Rate-6.351E-05
L11 59890U 24100F 25034.91906249 -.00006351 00000+0 -14477-3 0 9994
L22 59890 43.0005 224.0573 0001451 258.7334 101.3359 15.40725026 39995



Live tracking and technical data element details for STARLINK-31951 (NORAD 59890). STARLINK-31951 can be tracked NOW for your location showing map with azimuth and elevation plus other details from your city location.







IsCatalogInMostPopularTable: catalog: 59890, numindb: 53
Update: records affected: 1



GetName: 59890 STARLINK-31951

Hit Count: updated at: Sat, 17 May 2025 09:27:36 GMT